Starlink 11544

operational
NORAD ID: 62984 Int'l Des: 2025-031 Owner: SPXS Country: US Constellation: starlink
LEOCIRCULAR

关于 Starlink 11544

正在加载描述...

实时位置

正在加载3D地球...

即将过境

高度历史

Altitude vs Time

uPlot chart will show altitude changes over time

两行轨道根数

1 62984U 25031D 25350.13551082 .00231291 00000-0 17468-2 0 9996
2 62984 42.9992 144.9061 0001541 291.0133 69.0569 15.70968773 49574
Epoch: Dec 16, 2025 • Age: 21 hours

当前状态

高度 365.8 km
速度 7.69 km/s
星下点 -39.39°S, 12.25°W
发射日期 Feb 11, 2025
运行时间 0.8 years
类型 internet

技术详情

分类 Payload
质量 960.00 kg
干质量 910.00 kg
总质量 960.00 kg
长度 0.30 m
直径 4.10 m
跨度 29.00 m
形状 Box + pan
制造商 SPXS
平台类型 Starlink V2MD
阶段状态 In Orbit
所有者/国家 SPXS/US

大型星座

Loading constellations...